DW7267 Weather Reports


Display with metric or nautical units.
time (UTC)temp
F
wind
direction
speed
MPH
gust
MPH
rain 1hr
in
rain 24hr
in
rain mn
in
humidity
%
barometer
mb
20260508063134 44 159 1.0 4.0 0.00 0.00 0.00 48 1019.2
20260508062633 44 153 1.0 4.0 0.00 0.00 0.00 48 1019.1
20260508062127 44 122 1.0 4.0 0.00 0.00 0.00 47 1019.2
20260508061621 44 131 1.0 4.0 0.00 0.00 0.00 47 1019.2
20260508061114 44 127 0.0 2.0 0.00 0.00 0.00 47 1019.2
20260508060609 45 189 0.0 2.0 0.00 0.00 0.00 46 1019.2
20260508060103 45 138 1.0 3.0 0.00 0.00 0.00 46 1019.3
20260508055557 46 144 1.0 4.0 0.00 0.00 0.00 45 1019.2
20260508055055 46 105 1.0 4.0 0.00 0.00 0.00 45 1019.2
20260508054549 46 168 0.0 2.0 0.00 0.00 0.00 44 1019.3
20260508054045 46 119 0.0 2.0 0.00 0.00 0.00 44 1019.2
20260508053546 46 119 0.0 2.0 0.00 0.00 0.00 43 1019.3
20260508053044 46 117 0.0 2.0 0.00 0.00 0.00 43 1019.3
20260508052543 47 117 0.0 1.0 0.00 0.00 0.00 42 1019.4
20260508052315 47 117 0.0 1.0 0.00 0.00 0.00 42 1019.3
20260508051542 47 117 0.0 2.0 0.00 0.00 0.00 42 1019.3
20260508051315 47 118 0.0 2.0 0.00 0.00 0.00 41 1019.3
20260508050540 47 111 0.0 3.0 0.00 0.00 0.00 41 1019.3
20260508050038 47 111 1.0 3.0 0.00 0.00 0.00 41 1019.3
20260508045538 48 122 1.0 3.0 0.00 0.00 0.00 41 1019.3
20260508045038 48 108 0.0 3.0 0.00 0.00 0.00 40 1019.3
20260508044539 48 129 0.0 2.0 0.00 0.00 0.00 40 1019.2
20260508044034 48 129 0.0 2.0 0.00 0.00 0.00 40 1019.2
20260508043528 48 205 0.0 2.0 0.00 0.00 0.00 41 1019.2
20260508043026 48 119 0.0 2.0 0.00 0.00 0.00 41 1019.2
20260508042752 48 119 0.0 2.0 0.00 0.00 0.00 40 1019.1
20260508042255 49 149 0.0 1.0 0.00 0.00 0.00 40 1019.1
20260508041520 49 149 0.0 2.0 0.00 0.00 0.00 39 1019.1
20260508041019 49 149 0.0 2.0 0.00 0.00 0.00 38 1019.0
20260508040517 50 148 0.0 2.0 0.00 0.00 0.00 38 1019.0
20260508040018 51 127 0.0 2.0 0.00 0.00 0.00 38 1018.7
20260508035518 51 145 0.0 4.0 0.00 0.00 0.00 37 1018.7
20260508035015 51 127 0.0 4.0 0.00 0.00 0.00 38 1018.6
20260508034516 51 147 1.0 4.0 0.00 0.00 0.00 36 1018.6
20260508034245 51 148 0.0 4.0 0.00 0.00 0.00 36 1018.4
20260508033515 51 140 0.0 1.0 0.00 0.00 0.00 37 1018.3
20260508033014 52 131 0.0 1.0 0.00 0.00 0.00 37 1018.1
20260508032514 52 106 0.0 0.0 0.00 0.00 0.00 36 1018.0
20260508032015 53 106 0.0 3.0 0.00 0.00 0.00 35 1018.0
20260508031513 55 106 0.0 3.0 0.00 0.00 0.00 34 1018.0
20260508031241 55 106 1.0 3.0 0.00 0.00 0.00 33 1017.9
20260508030007 57 154 1.0 5.0 0.00 0.00 0.00 31 1017.7
20260508025510 56 102 1.0 5.0 0.00 0.00 0.00 31 1017.5
20260508025003 56 96 0.0 2.0 0.00 0.00 0.00 32 1017.5
20260508024505 56 255 0.0 0.0 0.00 0.00 0.00 32 1017.4
20260508024003 56 255 0.0 0.0 0.00 0.00 0.00 30 1017.3
20260508023501 58 255 0.0 0.0 0.00 0.00 0.00 29 1017.3
20260508022959 59 255 0.0 0.0 0.00 0.00 0.00 28 1017.3
20260508022459 60 255 0.0 0.0 0.00 0.00 0.00 27 1017.2
20260508021957 61 255 0.0 0.0 0.00 0.00 0.00 26 1017.2
20260508021725 62 255 0.0 0.0 0.00 0.00 0.00 24 1017.2
20260508020955 63 254 0.0 0.0 0.00 0.00 0.00 23 1017.1
20260508020455 64 254 0.0 0.0 0.00 0.00 0.00 22 1017.0
20260508015953 65 254 0.0 0.0 0.00 0.00 0.00 21 1016.8
20260508015725 65 255 0.0 0.0 0.00 0.00 0.00 20 1016.8
20260508015221 66 255 0.0 3.0 0.00 0.00 0.00 19 1016.8
20260508014449 67 255 0.0 3.0 0.00 0.00 0.00 19 1016.8
20260508013949 67 255 0.0 4.0 0.00 0.00 0.00 18 1016.7
20260508013449 68 255 0.0 4.0 0.00 0.00 0.00 18 1016.7
20260508012947 68 242 0.0 0.0 0.00 0.00 0.00 18 1016.7
20260508012447 69 242 0.0 0.0 0.00 0.00 0.00 18 1016.6
20260508011944 70 243 0.0 1.0 0.00 0.00 0.00 16 1016.6
20260508011444 71 242 0.0 6.0 0.00 0.00 0.00 14 1016.6
20260508010945 72 242 1.0 6.0 0.00 0.00 0.00 14 1016.5
20260508010443 73 259 2.0 6.0 0.00 0.00 0.00 14 1016.5
20260508005941 73 254 2.0 7.0 0.00 0.00 0.00 13 1016.4
20260508005713 74 231 3.0 7.0 0.00 0.00 0.00 13 1016.5
20260508004938 75 262 2.0 8.0 0.00 0.00 0.00 13 1016.5
20260508004437 75 250 1.0 8.0 0.00 0.00 0.00 14 1016.4
20260508004207 75 306 2.0 8.0 0.00 0.00 0.00 14 1016.4
20260508003437 75 251 2.0 8.0 0.00 0.00 0.00 13 1016.4
20260508002936 76 269 1.0 6.0 0.00 0.00 0.00 13 1016.4
20260508002435 76 227 0.0 5.0 0.00 0.00 0.00 12 1016.2
20260508001927 76 319 0.0 2.0 0.00 0.00 0.00 11 1016.4
20260508001426 76 319 1.0 8.0 0.00 0.00 0.00 11 1016.4
20260508000923 76 265 3.0 8.0 0.00 0.00 0.00 12 1016.5
20260508000421 75 247 3.0 9.0 0.00 0.00 0.00 11 1016.4
20260507235923 75 273 1.0 9.0 0.00 0.00 0.00 11 1016.4
20260507235419 75 238 1.0 4.0 0.00 0.00 0.00 10 1016.4
20260507234917 75 96 1.0 6.0 0.00 0.00 0.00 10 1016.4
20260507234416 76 84 1.0 6.0 0.00 0.00 0.00 10 1016.5
20260507233415 75 272 2.0 7.0 0.00 0.00 0.00 10 1016.5
20260507232915 76 49 1.0 6.0 0.00 0.00 0.00 11 1016.6
20260507232408 76 232 1.0 5.0 0.00 0.00 0.00 11 1016.5
20260507231908 76 242 1.0 5.0 0.00 0.00 0.00 10 1016.5
20260507231410 76 22 1.0 5.0 0.00 0.00 0.00 11 1016.5
20260507230909 76 265 2.0 8.0 0.00 0.00 0.00 11 1016.5
20260507230409 76 268 2.0 8.0 0.00 0.00 0.00 11 1016.6
20260507225909 75 272 3.0 12.0 0.00 0.00 0.00 11 1016.6
20260507225406 75 94 3.0 12.0 0.00 0.00 0.00 12 1016.6
20260507224905 75 38 4.0 12.0 0.00 0.00 0.00 10 1016.6
20260507224633 75 339 5.0 12.0 0.00 0.00 0.00 10 1016.6
20260507223903 76 273 4.0 10.0 0.00 0.00 0.00 10 1016.7
20260507223403 76 325 2.0 10.0 0.00 0.00 0.00 10 1016.7
20260507222904 76 344 1.0 10.0 0.00 0.00 0.00 11 1016.8
20260507222627 75 301 3.0 13.0 0.00 0.00 0.00 12 1016.7
20260507221854 75 250 3.0 13.0 0.00 0.00 0.00 10 1016.8
20260507221353 75 276 2.0 10.0 0.00 0.00 0.00 12 1016.8
20260507220852 75 298 3.0 10.0 0.00 0.00 0.00 14 1017.0
20260507220352 75 272 4.0 9.0 0.00 0.00 0.00 11 1017.1
20260507215845 74 251 4.0 9.0 0.00 0.00 0.00 12 1017.1
20260507215345 75 216 3.0 10.0 0.00 0.00 0.00 12 1017.1
20260507214846 74 271 3.0 10.0 0.00 0.00 0.00 14 1017.2
20260507214345 74 278 4.0 10.0 0.00 0.00 0.00 12 1017.3
20260507213846 75 300 4.0 10.0 0.00 0.00 0.00 12 1017.3
20260507213345 75 77 4.0 9.0 0.00 0.00 0.00 12 1017.4
20260507212839 75 271 3.0 9.0 0.00 0.00 0.00 12 1017.4
20260507212335 75 261 2.0 14.0 0.00 0.00 0.00 13 1017.5
20260507211835 75 43 2.0 14.0 0.00 0.00 0.00 11 1017.7
20260507211334 74 344 4.0 15.0 0.00 0.00 0.00 12 1017.8
20260507210833 74 318 5.0 15.0 0.00 0.00 0.00 14 1017.9
20260507210330 74 240 3.0 10.0 0.00 0.00 0.00 13 1017.9
20260507205830 74 70 3.0 8.0 0.00 0.00 0.00 12 1018.0
20260507205330 74 105 3.0 8.0 0.00 0.00 0.00 13 1018.0
20260507204829 74 71 2.0 7.0 0.00 0.00 0.00 14 1018.0
20260507204332 74 56 1.0 5.0 0.00 0.00 0.00 13 1018.1
20260507203831 74 18 2.0 7.0 0.00 0.00 0.00 12 1018.1
20260507203331 74 250 3.0 7.0 0.00 0.00 0.00 12 1018.1
20260507202826 74 237 2.0 9.0 0.00 0.00 0.00 14 1018.3
20260507202325 74 283 3.0 9.0 0.00 0.00 0.00 12 1018.3
20260507201824 74 35 4.0 10.0 0.00 0.00 0.00 13 1018.3
20260507201325 74 36 2.0 10.0 0.00 0.00 0.00 14 1018.4
20260507200825 73 35 3.0 11.0 0.00 0.00 0.00 13 1018.5
20260507200327 73 99 3.0 11.0 0.00 0.00 0.00 12 1018.6
20260507195818 73 356 2.0 9.0 0.00 0.00 0.00 13 1018.6
20260507195549 73 241 3.0 9.0 0.00 0.00 0.00 13 1018.6
20260507194819 73 20 2.0 8.0 0.00 0.00 0.00 13 1018.7
20260507194319 74 93 2.0 6.0 0.00 0.00 0.00 14 1018.7
20260507193819 73 90 2.0 5.0 0.00 0.00 0.00 13 1018.7
20260507193319 73 169 2.0 6.0 0.00 0.00 0.00 17 1018.8
20260507192812 72 234 3.0 7.0 0.00 0.00 0.00 15 1018.8
20260507192313 72 276 3.0 7.0 0.00 0.00 0.00 14 1019.0
20260507191815 72 110 2.0 7.0 0.00 0.00 0.00 15 1019.1
20260507191313 72 232 2.0 8.0 0.00 0.00 0.00 17 1019.1
20260507190814 71 273 2.0 8.0 0.00 0.00 0.00 15 1019.2
20260507190313 71 162 2.0 8.0 0.00 0.00 0.00 15 1019.4
20260507185808 71 88 3.0 8.0 0.00 0.00 0.00 15 1019.4
20260507185307 71 262 2.0 7.0 0.00 0.00 0.00 16 1019.3
20260507184806 71 220 3.0 9.0 0.00 0.00 0.00 15 1019.4
20260507184539 71 72 3.0 9.0 0.00 0.00 0.00 16 1019.6
20260507183807 71 162 3.0 9.0 0.00 0.00 0.00 16 1019.4
20260507183309 71 144 3.0 9.0 0.00 0.00 0.00 16 1019.7
20260507182801 71 207 2.0 9.0 0.00 0.00 0.00 16 1019.7
20260507182301 71 187 2.0 9.0 0.00 0.00 0.00 17 1019.7
20260507181801 70 159 3.0 9.0 0.00 0.00 0.00 17 1019.7
20260507181301 69 110 3.0 9.0 0.00 0.00 0.00 18 1019.8
20260507181031 69 166 5.0 11.0 0.00 0.00 0.00 17 1019.9
20260507180302 69 104 5.0 11.0 0.00 0.00 0.00 15 1020.0
20260507180027 69 34 5.0 11.0 0.00 0.00 0.00 16 1019.9
20260507175255 69 120 5.0 11.0 0.00 0.00 0.00 17 1019.9
20260507174757 69 123 5.0 13.0 0.00 0.00 0.00 17 1019.9
20260507173755 68 100 5.0 9.0 0.00 0.00 0.00 17 1020.0
20260507173526 68 86 5.0 9.0 0.00 0.00 0.00 17 1020.2
20260507172749 69 38 3.0 8.0 0.00 0.00 0.00 17 1020.2
20260507172248 68 105 3.0 11.0 0.00 0.00 0.00 20 1020.2
20260507171747 68 77 4.0 11.0 0.00 0.00 0.00 18 1020.2
20260507171249 67 17 5.0 13.0 0.00 0.00 0.00 20 1020.2
20260507170749 66 129 7.0 13.0 0.00 0.00 0.00 20 1020.2
20260507170251 66 91 5.0 11.0 0.00 0.00 0.00 19 1020.2
20260507165743 66 43 3.0 10.0 0.00 0.00 0.00 18 1020.2
20260507165242 65 105 5.0 12.0 0.00 0.00 0.00 20 1020.3
20260507164743 65 110 5.0 13.0 0.00 0.00 0.00 20 1020.3
20260507164244 66 72 4.0 13.0 0.00 0.00 0.00 20 1020.4
20260507163743 66 106 4.0 11.0 0.00 0.00 0.00 21 1020.3
20260507163516 66 78 3.0 10.0 0.00 0.00 0.00 22 1020.3
20260507162738 66 72 3.0 10.0 0.00 0.00 0.00 22 1020.4
20260507162509 66 100 1.0 6.0 0.00 0.00 0.00 21 1020.4
20260507161739 65 231 2.0 7.0 0.00 0.00 0.00 22 1020.4
20260507161239 65 103 3.0 7.0 0.00 0.00 0.00 23 1020.5
20260507161009 64 90 4.0 10.0 0.00 0.00 0.00 23 1020.5
20260507155732 63 22 6.0 11.0 0.00 0.00 0.00 24 1020.5
20260507155232 63 118 7.0 13.0 0.00 0.00 0.00 23 1020.6
20260507154732 63 61 6.0 13.0 0.00 0.00 0.00 23 1020.6
20260507154233 63 88 4.0 10.0 0.00 0.00 0.00 22 1020.6
20260507153731 62 77 3.0 7.0 0.00 0.00 0.00 23 1020.7
20260507153232 62 122 4.0 10.0 0.00 0.00 0.00 23 1020.7
20260507152724 62 71 5.0 14.0 0.00 0.00 0.00 22 1020.7
20260507152225 62 81 4.0 14.0 0.00 0.00 0.00 22 1020.7
20260507151726 62 76 3.0 13.0 0.00 0.00 0.00 22 1020.7
20260507151225 62 213 5.0 14.0 0.00 0.00 0.00 23 1020.9
20260507150225 61 91 5.0 12.0 0.00 0.00 0.00 21 1020.7
20260507145719 61 75 5.0 11.0 0.00 0.00 0.00 21 1020.9
20260507145219 61 121 5.0 11.0 0.00 0.00 0.00 22 1020.9
20260507144952 61 55 5.0 11.0 0.00 0.00 0.00 21 1020.6
20260507144450 61 71 4.0 11.0 0.00 0.00 0.00 21 1020.6
20260507143720 61 58 3.0 10.0 0.00 0.00 0.00 22 1020.6
20260507143219 60 148 5.0 12.0 0.00 0.00 0.00 23 1020.5
20260507142944 60 89 6.0 13.0 0.00 0.00 0.00 22 1020.5
20260507142214 60 105 5.0 13.0 0.00 0.00 0.00 23 1020.5
20260507141714 59 49 5.0 13.0 0.00 0.00 0.00 23 1020.5
20260507141216 58 126 4.0 13.0 0.00 0.00 0.00 23 1020.5
20260507140713 58 91 6.0 13.0 0.00 0.00 0.00 24 1020.5
20260507140214 58 81 6.0 14.0 0.00 0.00 0.00 24 1020.5
20260507135708 57 106 6.0 15.0 0.00 0.00 0.00 25 1020.5
20260507135207 57 125 6.0 16.0 0.00 0.00 0.00 24 1020.4
20260507134707 57 73 5.0 16.0 0.00 0.00 0.00 25 1020.4
20260507134208 56 110 6.0 18.0 0.00 0.00 0.00 25 1020.4
20260507133707 56 94 5.0 18.0 0.00 0.00 0.00 25 1020.3
20260507133207 56 203 5.0 14.0 0.00 0.00 0.00 25 1020.3
20260507132700 56 111 5.0 14.0 0.00 0.00 0.00 25 1020.3
20260507132432 55 120 5.0 13.0 0.00 0.00 0.00 25 1020.3
20260507131703 55 165 5.0 13.0 0.00 0.00 0.00 25 1020.3
20260507131201 55 195 4.0 12.0 0.00 0.00 0.00 25 1020.2
20260507130702 54 66 5.0 12.0 0.00 0.00 0.00 25 1020.2
20260507130201 54 155 6.0 13.0 0.00 0.00 0.00 25 1020.2
20260507125655 53 135 6.0 13.0 0.00 0.00 0.00 26 1020.2
20260507125156 53 93 6.0 15.0 0.00 0.00 0.00 26 1020.2
20260507124654 53 62 6.0 15.0 0.00 0.00 0.00 26 1020.2
20260507124427 53 135 6.0 15.0 0.00 0.00 0.00 26 1020.0
20260507123926 53 76 5.0 15.0 0.00 0.00 0.00 26 1020.0
20260507123156 52 108 5.0 15.0 0.00 0.00 0.00 27 1019.9
20260507122650 52 133 5.0 11.0 0.00 0.00 0.00 27 1020.0
20260507122150 52 107 6.0 12.0 0.00 0.00 0.00 27 1020.2
20260507121650 52 53 5.0 13.0 0.00 0.00 0.00 27 1020.2
20260507121151 52 131 5.0 13.0 0.00 0.00 0.00 27 1020.2
20260507120649 52 133 4.0 13.0 0.00 0.00 0.00 27 1020.0
20260507120149 53 79 5.0 15.0 0.00 0.00 0.00 27 1020.0
20260507115642 53 169 6.0 15.0 0.00 0.00 0.00 27 1020.0
20260507115143 53 130 6.0 15.0 0.00 0.00 0.00 27 1020.0
20260507114143 53 119 5.0 13.0 0.00 0.00 0.00 27 1020.2
20260507113643 53 134 5.0 14.0 0.00 0.00 0.00 27 1020.0
20260507113144 52 132 5.0 14.0 0.00 0.00 0.00 28 1020.2
20260507112637 52 179 4.0 11.0 0.00 0.00 0.00 29 1020.2
20260507112137 52 167 5.0 11.0 0.00 0.00 0.00 30 1020.2
20260507111636 51 176 4.0 11.0 0.00 0.00 0.00 31 1020.2
20260507111137 49 61 3.0 10.0 0.00 0.00 0.00 35 1020.2
20260507110637 46 91 3.0 10.0 0.00 0.00 0.00 41 1020.2
20260507110410 42 143 1.0 7.0 0.00 0.00 0.00 53 1020.3
20260507105632 39 109 0.0 5.0 0.00 0.00 0.00 64 1020.3
20260507105133 36 87 0.0 1.0 0.00 0.00 0.00 74 1020.4
20260507104633 36 86 0.0 1.0 0.00 0.00 0.00 78 1020.4
20260507104405 35 87 0.0 1.0 0.00 0.00 0.00 80 1020.4
20260507103631 35 95 0.0 1.0 0.00 0.00 0.00 82 1020.5
20260507103131 35 96 0.0 1.0 0.00 0.00 0.00 82 1020.5
20260507102629 35 95 0.0 1.0 0.00 0.00 0.00 82 1020.5
20260507102128 35 96 0.0 1.0 0.00 0.00 0.00 82 1020.6
20260507101901 34 106 0.0 0.0 0.00 0.00 0.00 81 1020.6
20260507101359 35 107 0.0 0.0 0.00 0.00 0.00 80 1020.6
20260507100627 35 106 0.0 0.0 0.00 0.00 0.00 79 1020.6
20260507100125 35 107 0.0 0.0 0.00 0.00 0.00 79 1020.7
20260507095621 36 106 0.0 0.0 0.00 0.00 0.00 79 1020.7
20260507095120 36 106 0.0 0.0 0.00 0.00 0.00 78 1020.7
20260507094622 36 107 0.0 1.0 0.00 0.00 0.00 78 1020.6
20260507094121 36 107 0.0 1.0 0.00 0.00 0.00 78 1020.6
20260507093619 37 106 0.0 2.0 0.00 0.00 0.00 77 1020.5
20260507093120 37 107 0.0 2.0 0.00 0.00 0.00 78 1020.4
20260507092616 37 81 0.0 3.0 0.00 0.00 0.00 79 1020.4
20260507092115 36 71 0.0 3.0 0.00 0.00 0.00 79 1020.4
20260507091612 36 143 0.0 0.0 0.00 0.00 0.00 77 1020.4
20260507091113 37 143 0.0 0.0 0.00 0.00 0.00 77 1020.5
20260507090613 37 143 0.0 0.0 0.00 0.00 0.00 76 1020.5
20260507090343 37 143 0.0 0.0 0.00 0.00 0.00 75 1020.6
20260507085609 38 131 0.0 5.0 0.00 0.00 0.00 74 1020.6
20260507085110 38 131 0.0 5.0 0.00 0.00 0.00 72 1020.6
20260507084609 39 117 1.0 6.0 0.00 0.00 0.00 71 1020.6
20260507084109 40 116 2.0 6.0 0.00 0.00 0.00 71 1020.7
20260507083607 39 73 1.0 6.0 0.00 0.00 0.00 73 1020.7
20260507083107 39 77 0.0 4.0 0.00 0.00 0.00 71 1020.7
20260507082605 40 121 0.0 4.0 0.00 0.00 0.00 70 1020.7
20260507082102 40 120 1.0 4.0 0.00 0.00 0.00 69 1020.7
20260507081600 41 120 2.0 4.0 0.00 0.00 0.00 70 1020.7
20260507081101 40 95 1.0 4.0 0.00 0.00 0.00 71 1020.9
20260507080832 40 88 2.0 4.0 0.00 0.00 0.00 72 1020.9
20260507075557 40 146 1.0 3.0 0.00 0.00 0.00 69 1020.7
20260507075057 41 155 1.0 6.0 0.00 0.00 0.00 67 1020.7
20260507074557 42 207 2.0 6.0 0.00 0.00 0.00 66 1020.7
20260507074058 42 124 3.0 6.0 0.00 0.00 0.00 66 1020.7
20260507073555 42 80 4.0 7.0 0.00 0.00 0.00 66 1020.7
20260507073328 42 82 5.0 8.0 0.00 0.00 0.00 66 1020.7
20260507072548 42 63 4.0 8.0 0.00 0.00 0.00 66 1020.7
20260507072320 43 56 4.0 6.0 0.00 0.00 0.00 66 1020.7
20260507071551 43 84 3.0 6.0 0.00 0.00 0.00 65 1020.7
20260507071049 43 84 3.0 5.0 0.00 0.00 0.00 64 1020.9
20260507070550 43 84 3.0 5.0 0.00 0.00 0.00 65 1020.9
20260507070320 43 74 2.0 5.0 0.00 0.00 0.00 65 1020.9
20260507065817 43 80 2.0 4.0 0.00 0.00 0.00 65 1020.9
20260507065045 43 96 2.0 5.0 0.00 0.00 0.00 65 1020.7
20260507064816 43 82 2.0 6.0 0.00 0.00 0.00 65 1020.7
20260507064045 43 121 2.0 6.0 0.00 0.00 0.00 65 1020.7
20260507063543 43 88 1.0 5.0 0.00 0.00 0.00 64 1020.7